• In Austria
  • List of Countries
  • For 7 days
  • Water Temperature
  • Satellite Maps
  • Weather Map
  • News
  • Weather Widgets
  • user-avatar
    Login

    Hourly Weather Silivri

    Today, 19 November, Sunday

    Time Temperature Precipitation Wind Pressure Humidity
    00:00 +13°C° 0 mm 4 mps 754 mmHg 89%
    01:00 +13°C° 0 mm 4 mps 754 mmHg 89%
    02:00 +13°C° 0 mm 4 mps 753 mmHg 89%
    03:00 +13°C° 0.1 mm 4 mps 753 mmHg 90%
    04:00 +13°C° 0.1 mm 4 mps 753 mmHg 90%
    05:00 +13°C° 0.1 mm 4 mps 753 mmHg 91%
    06:00 +12°C° 0.1 mm 4 mps 753 mmHg 90%
    07:00 +12°C° 0.1 mm 4 mps 753 mmHg 89%
    08:00 +12°C° 0.1 mm 4 mps 753 mmHg 88%
    09:00 +12°C° 0.2 mm 4 mps 753 mmHg 87%
    10:00 +12°C° 0.2 mm 4 mps 753 mmHg 86%
    11:00 +12°C° 0.2 mm 4 mps 753 mmHg 84%
    12:00 +12°C° 0.2 mm 4 mps 753 mmHg 84%
    13:00 +12°C° 0.2 mm 4 mps 753 mmHg 83%
    14:00 +12°C° 0.2 mm 4 mps 752 mmHg 82%
    15:00 +12°C° 0.3 mm 4 mps 752 mmHg 83%
    16:00 +12°C° 0.3 mm 5 mps 752 mmHg 84%
    17:00 +10°C° 0.3 mm 5 mps 752 mmHg 85%
    18:00 +10°C° 0.7 mm 5 mps 752 mmHg 87%
    19:00 +10°C° 0.7 mm 5 mps 752 mmHg 88%
    20:00 +10°C° 0.7 mm 5 mps 751 mmHg 90%
    21:00 +9°C° 1.4 mm 5 mps 751 mmHg 91%
    22:00 +9°C° 1.4 mm 5 mps 751 mmHg 91%
    23:00 +9°C° 1.4 mm 5 mps 751 mmHg 92%

    Tomorrow, 20 November, Monday

    Time Temperature Precipitation Wind Pressure Humidity
    00:00 +8°C° 2.2 mm 6 mps 751 mmHg 91%
    01:00 +8°C° 2.2 mm 7 mps 751 mmHg 90%
    02:00 +6°C° 2.2 mm 8 mps 751 mmHg 89%
    03:00 +7°C° 0.3 mm 6 mps 751 mmHg 88%
    04:00 +8°C° 0.3 mm 5 mps 751 mmHg 87%
    05:00 +9°C° 0.3 mm 3 mps 751 mmHg 86%
    06:00 +9°C° 0.2 mm 3 mps 752 mmHg 85%
    07:00 +9°C° 0.2 mm 3 mps 752 mmHg 85%
    08:00 +9°C° 0.2 mm 2 mps 752 mmHg 84%
    09:00 +9°C° 1.5 mm 3 mps 752 mmHg 83%
    10:00 +8°C° 1.5 mm 4 mps 752 mmHg 82%
    11:00 +8°C° 1.5 mm 5 mps 752 mmHg 82%
    12:00 +7°C° 3.4 mm 6 mps 751 mmHg 82%
    13:00 +6°C° 3.4 mm 7 mps 751 mmHg 82%
    14:00 +6°C° 3.4 mm 8 mps 751 mmHg 83%
    15:00 +5°C° 2 mm 9 mps 751 mmHg 81%
    16:00 +5°C° 2 mm 10 mps 752 mmHg 79%
    17:00 +4°C° 2 mm 11 mps 752 mmHg 77%
    18:00 +4°C° 1.5 mm 11 mps 753 mmHg 76%
    19:00 +4°C° 1.5 mm 11 mps 754 mmHg 75%
    20:00 +5°C° 1.5 mm 10 mps 755 mmHg 73%
    21:00 +5°C° 0.7 mm 10 mps 755 mmHg 72%
    22:00 +5°C° 0.7 mm 9 mps 756 mmHg 71%
    23:00 +5°C° 0.7 mm 9 mps 757 mmHg 70%

    Day after tomorrow, 21 November, Tuesday

    Time Temperature Precipitation Wind Pressure Humidity
    00:00 +3°C° 0.2 mm 9 mps 757 mmHg 70%
    01:00 +4°C° 0.2 mm 8 mps 758 mmHg 71%
    02:00 +2°C° 0.2 mm 8 mps 758 mmHg 72%
    03:00 +2°C° 0 mm 8 mps 758 mmHg 73%
    04:00 +2°C° 0 mm 8 mps 758 mmHg 74%
    05:00 +2°C° 0 mm 7 mps 758 mmHg 74%
    06:00 +2°C° 0 mm 7 mps 759 mmHg 75%
    07:00 +2°C° 0 mm 6 mps 759 mmHg 76%
    08:00 +2°C° 0 mm 5 mps 760 mmHg 76%
    09:00 +3°C° 0 mm 5 mps 760 mmHg 70%
    10:00 +5°C° 0 mm 4 mps 760 mmHg 63%
    11:00 +8°C° 0 mm 3 mps 760 mmHg 57%
    12:00 +8°C° 0 mm 3 mps 760 mmHg 54%
    13:00 +8°C° 0 mm 4 mps 760 mmHg 52%
    14:00 +8°C° 0 mm 4 mps 759 mmHg 50%
    15:00 +8°C° 0 mm 4 mps 759 mmHg 53%
    16:00 +7°C° 0 mm 4 mps 759 mmHg 56%
    17:00 +6°C° 0 mm 4 mps 759 mmHg 60%
    18:00 +6°C° 0 mm 4 mps 760 mmHg 61%
    19:00 +6°C° 0 mm 4 mps 760 mmHg 62%
    20:00 +6°C° 0 mm 5 mps 760 mmHg 63%
    21:00 +6°C° 0 mm 5 mps 760 mmHg 66%
    22:00 +6°C° 0 mm 5 mps 760 mmHg 69%
    23:00 +5°C° 0 mm 6 mps 760 mmHg 72%

    22 November, Wednesday

    Time Temperature Precipitation Wind Pressure Humidity
    00:00 +5°C° 0 mm 6 mps 760 mmHg 74%
    01:00 +5°C° 0 mm 6 mps 759 mmHg 77%
    02:00 +5°C° 0 mm 6 mps 759 mmHg 79%
    03:00 +5°C° 0 mm 6 mps 759 mmHg 79%
    04:00 +5°C° 0 mm 6 mps 759 mmHg 80%
    05:00 +5°C° 0 mm 6 mps 759 mmHg 81%
    06:00 +6°C° 0 mm 5 mps 759 mmHg 79%
    07:00 +6°C° 0 mm 5 mps 760 mmHg 78%
    08:00 +7°C° 0 mm 5 mps 760 mmHg 76%
    09:00 +8°C° 0 mm 5 mps 760 mmHg 72%
    10:00 +9°C° 0 mm 5 mps 760 mmHg 69%
    11:00 +10°C° 0 mm 5 mps 760 mmHg 65%
    12:00 +12°C° 0 mm 5 mps 760 mmHg 62%
    13:00 +13°C° 0 mm 5 mps 760 mmHg 58%
    14:00 +14°C° 0 mm 5 mps 760 mmHg 55%
    15:00 +13°C° 0 mm 4 mps 760 mmHg 58%
    16:00 +12°C° 0 mm 4 mps 760 mmHg 61%
    17:00 +12°C° 0 mm 3 mps 760 mmHg 65%
    18:00 +11°C° 0 mm 3 mps 761 mmHg 66%
    19:00 +12°C° 0 mm 2 mps 761 mmHg 67%
    20:00 +10°C° 0 mm 2 mps 761 mmHg 68%
    21:00 +10°C° 0 mm 2 mps 761 mmHg 69%
    22:00 +10°C° 0 mm 2 mps 762 mmHg 70%
    23:00 +10°C° 0 mm 2 mps 762 mmHg 71%

    23 November, Thursday

    Time Temperature Precipitation Wind Pressure Humidity
    00:00 +10°C° 0 mm 2 mps 762 mmHg 72%
    01:00 +9°C° 0 mm 2 mps 762 mmHg 72%
    02:00 +9°C° 0 mm 2 mps 762 mmHg 73%
    03:00 +9°C° 0 mm 2 mps 762 mmHg 73%
    04:00 +9°C° 0 mm 2 mps 762 mmHg 74%
    05:00 +9°C° 0 mm 2 mps 762 mmHg 75%
    06:00 +9°C° 0 mm 2 mps 763 mmHg 75%
    07:00 +9°C° 0 mm 2 mps 763 mmHg 76%
    08:00 +9°C° 0 mm 2 mps 763 mmHg 76%
    09:00 +12°C° 0 mm 2 mps 763 mmHg 71%
    10:00 +13°C° 0 mm 2 mps 763 mmHg 66%
    11:00 +15°C° 0 mm 2 mps 764 mmHg 60%
    12:00 +15°C° 0 mm 2 mps 763 mmHg 57%
    13:00 +16°C° 0 mm 1 mps 763 mmHg 55%
    14:00 +16°C° 0 mm 1 mps 763 mmHg 52%
    15:00 +15°C° 0 mm 1 mps 763 mmHg 56%
    16:00 +14°C° 0 mm 1 mps 763 mmHg 60%
    17:00 +13°C° 0 mm 1 mps 763 mmHg 64%
    18:00 +13°C° 0 mm 1 mps 764 mmHg 66%
    19:00 +13°C° 0 mm 1 mps 764 mmHg 67%
    20:00 +11°C° 0 mm 0 mps 764 mmHg 69%
    21:00 +12°C° 0 mm 1 mps 764 mmHg 70%
    22:00 +12°C° 0 mm 1 mps 765 mmHg 71%
    23:00 +11°C° 0 mm 1 mps 765 mmHg 72%

    24 November, Friday

    Time Temperature Precipitation Wind Pressure Humidity
    00:00 +11°C° 0 mm 1 mps 765 mmHg 72%
    01:00 +11°C° 0 mm 1 mps 765 mmHg 73%
    02:00 +11°C° 0 mm 1 mps 765 mmHg 73%
    03:00 +11°C° 0 mm 1 mps 765 mmHg 73%
    04:00 +10°C° 0 mm 1 mps 765 mmHg 74%
    05:00 +10°C° 0 mm 1 mps 765 mmHg 74%
    06:00 +10°C° 0 mm 1 mps 765 mmHg 74%
    07:00 +10°C° 0 mm 1 mps 765 mmHg 74%
    08:00 +11°C° 0 mm 1 mps 765 mmHg 73%
    09:00 +12°C° 0 mm 1 mps 765 mmHg 68%
    10:00 +14°C° 0 mm 1 mps 765 mmHg 64%
    11:00 +15°C° 0 mm 1 mps 765 mmHg 59%
    12:00 +16°C° 0 mm 2 mps 765 mmHg 57%
    13:00 +16°C° 0 mm 2 mps 764 mmHg 55%
    14:00 +17°C° 0 mm 2 mps 764 mmHg 53%
    15:00 +16°C° 0 mm 2 mps 764 mmHg 58%
    16:00 +14°C° 0 mm 3 mps 764 mmHg 63%
    17:00 +13°C° 0 mm 3 mps 764 mmHg 68%
    18:00 +12°C° 0 mm 3 mps 765 mmHg 72%
    19:00 +12°C° 0 mm 3 mps 765 mmHg 75%
    20:00 +11°C° 0 mm 3 mps 765 mmHg 79%
    21:00 +11°C° 0 mm 3 mps 765 mmHg 80%
    22:00 +11°C° 0 mm 3 mps 765 mmHg 82%
    23:00 +10°C° 0 mm 3 mps 765 mmHg 84%
    Show more